Weather in Nesterovskaya

Russia / Republic of Ingushetia     43°14′17″N   45°02′56″E
temp.,
°C
wind,
m/s
gust,
m/s
humid.,
%
clouds,
%
prec.,
mm/h
press.,
hPa
HPBL,
m
15 august, mon
mon1500:00+22sw32560 0.0 100628
03:00+21ssw22450 0.0 100618
06:00+21ssw11501 0.0 100612
09:00+29ne12360 0.0 1006535
12:00+34ene33280 0.0 10041408
15:00+37e22230 0.0 10021756
18:00+33ssw23330 0.0 100376
21:00+25sw22530 0.0 100524
16 august, tue
tue1600:00+23sw33420 0.0 100631
03:00+22sw33410 0.0 100643
06:00+22sw33470 0.0 100755
09:00+31w33310 0.0 1007631
12:00+35w43260 0.0 10071687
15:00+37wsw32230 0.0 10062110
18:00+33sw34330 0.0 1007198
21:00+26sw33470 0.0 100939
17 august, wed
wed1700:00+25sw46450 0.0 101089
03:00+24sw45440 0.0 101077
06:00+23sw33470 0.0 101157
09:00+31nnw22360 0.0 1009946
12:00+35ne33260 0.0 10082064
15:00+37ene33220 0.0 10062548
18:00+34e13310 0.0 1006112
21:00+26ssw33480 0.0 100732
18 august, thu
thu1800:00+24sw33320 0.0 100741
03:00+23sw34330 0.0 100751
06:00+22sw34402 0.0 100878
09:00+30wsw443218 0.0 1007655
12:00+37wsw11230 0.0 10062059
15:00+38ssw21190 0.0 10042569
18:00+34w12280 0.0 100353
21:00+25ssw2243100 0.0 100525
19 august, fri
fri1900:00+24w8135698 0.0 1008565
03:00+21wsw4977100 0.0 1008340
06:00+22wsw2574100 0.0 1009190
09:00+28ne114994 0.0 1009844
12:00+32e333243 0.0 10081777
15:00+34e43295 0.0 10072064
18:00+31ene333643 0.0 1006462
21:00+23sse014483 0.0 100815